This is the latest recevied weather packets stored in our database for station/object CE3TDM-10. If no packets are shown the sender has not sent any weather packets the latest 10 day(s).
| Time | Temp. | Humidity | Pressure | Rain* | Wind** | Luminosity | Snow |
|---|---|---|---|---|---|---|---|
| 1788566539 | 23.89° C | 31% | 923.7 hPa | - | - | - | - |
| 1788565674 | 23.89° C | 31% | 923.5 hPa | - | - | - | - |
| 1788564739 | 23.89° C | 31% | 923.5 hPa | - | - | - | - |
| 1788563839 | 23.89° C | 31% | 923.3 hPa | - | - | - | - |
| 1788562939 | 23.89° C | 31% | 923.2 hPa | - | - | - | - |
| 1788562039 | 23.89° C | 30% | 923.1 hPa | - | - | - | - |
| 1788560263 | 24.44° C | 30% | 923.2 hPa | - | - | - | - |
| 1788558442 | 25° C | 30% | 923 hPa | - | - | - | - |
| 1788557538 | 25° C | 29% | 922.9 hPa | - | - | - | - |
| 1788556644 | 25° C | 29% | 922.9 hPa | - | - | - | - |
| 1788555738 | 23.89° C | 29% | 922.9 hPa | - | - | - | - |
| 1788554843 | 22.22° C | 29% | 922.8 hPa | - | - | - | - |
| 1788553938 | 23.33° C | 28% | 922.8 hPa | - | - | - | - |
| 1788553062 | 23.33° C | 29% | 922.8 hPa | - | - | - | - |
| 1788552138 | 24.44° C | 28% | 922.8 hPa | - | - | - | - |
| 1788551238 | 25.56° C | 28% | 922.7 hPa | - | - | - | - |
| 1788550388 | 27.22° C | 28% | 922.7 hPa | - | - | - | - |
| 1788550338 | 27.22° C | 28% | 922.7 hPa | - | - | - | - |
| 1788549437 | 27.78° C | 29% | 922.6 hPa | - | - | - | - |
| 1788547637 | 31.11° C | 30% | 922.7 hPa | - | - | - | - |
| 1788546737 | 30.56° C | 31% | 922.6 hPa | - | - | - | - |
| 1788545838 | 30° C | 32% | 922.8 hPa | - | - | - | - |
| 1788544937 | 28.89° C | 33% | 922.8 hPa | - | - | - | - |
| 1788544037 | 27.78° C | 33% | 923 hPa | - | - | - | - |
| 1788543137 | 26.67° C | 34% | 923.2 hPa | - | - | - | - |
* Rain since midnight (hover to see other rain measurements)
** Current wind speed in m/s (hover to see current wind gust speed)